Regional Weather Roundup
Issued by NWS

Home | Current Version | Previous Version | Graphics & Text | Print | Product List | Glossary On
Versions: 1 2 3 4 5 6 7 8 9 10 11 12 13 14 15 16 17 18 19 20 21 22 23 24 25 26 27 28 29 30 31 32 33 34 35 36 37 38 39 40 41 42 43 44 45 46 47 48 49 50
000
ASUS44 KMEG 241000
RWRTN
TENNESSEE HOURLY STATE WEATHER ROUNDUP
NATIONAL WEATHER SERVICE MEMPHIS TN
500 AM CDT SUN MAY 24 2015

TNZ002-004-019-021-049-052-054-088>092-241100-
WEST TENNESSEE

CITY           SKY/WX    TMP DP  RH WIND       PRES   REMARKS
MEMPHIS INTL   CLEAR     71  59  65 SE10      30.10S
NWS MEMPHIS      N/A     70 N/A N/A MISG        N/A
JACKSON        MOCLDY    69  57  65 SE6       30.15S
DYERSBURG      MOCLDY    70  48  46 SE8       30.14S
PARIS          CLEAR     63  55  77 SE6       30.18R
LEXINGTON      CLEAR     63  55  77 CALM      30.17S
$$

TNZ008-025-027-028-033-062-065-066-241100-
NORTH MIDDLE TENNESSEE

CITY           SKY/WX    TMP DP  RH WIND       PRES   REMARKS
NASHVILLE      PTCLDY    61  53  75 SE5       30.24R
CLARKSVILLE    CLEAR     64  55  72 S6        30.20S
CROSSVILLE     PTCLDY    54  47  77 CALM      30.33R
$$

TNZ061-075-076-078-094-096-097-241100-
SOUTH MIDDLE TENNESSEE

CITY           SKY/WX    TMP DP  RH WIND       PRES   REMARKS
WINCHESTER     CLEAR     66  48  52 SE15      30.26S
SHELBYVILLE    CLEAR     61  54  77 SE5       30.25S
$$

TNZ017-018-042-046-047-241100-
NORTHEAST TENNESSEE

CITY           SKY/WX    TMP DP  RH WIND       PRES   REMARKS
TRI CITIES     PTCLDY    50  47  89 CALM      30.35R
$$

TNZ012-013-036-069-073-074-241100-
CENTRAL EAST TENNESSEE

CITY           SKY/WX    TMP DP  RH WIND       PRES   REMARKS
KNOXVILLE      PTCLDY    58  54  86 CALM      30.30S
OAK RIDGE      PTCLDY    55  53  93 CALM      30.33R
GATLINBURG     SUNNY     52  50  93 CALM      30.31S
$$

TNZ083-085-099-241100-
SOUTHEAST TENNESSEE

CITY           SKY/WX    TMP DP  RH WIND       PRES   REMARKS
CHATTANOOGA    PTCLDY    56  52  86 CALM      30.32R
$$

SKY/WX REPORTED AS FAIR MEANS FEW OR NO CLOUDS BELOW
12 THOUSAND FEET.



USA.gov is the U.S. government's official web portal to all federal, state and local government web resources and services.